Stations météo

réclame
Mon MeteoGroup
Falsterbo A, Suède (2615): Température de l'air & dewpoint: 13.06.2019 11:00:00 - 19.06.2019 11:00:00 (CEST)Falsterbo A, Suède (2615): Vitesse du vent & gusts: 13.06.2019 11:00:00 - 19.06.2019 11:00:00 (CEST)Falsterbo A, Suède (2615): Direction du vent: 13.06.2019 11:00:00 - 19.06.2019 11:00:00 (CEST)Falsterbo A, Suède (2615): reduced air pressure: 13.06.2019 11:00:00 - 19.06.2019 11:00:00 (CEST)Falsterbo A, Suède (2615): visibility: 13.06.2019 11:00:00 - 19.06.2019 11:00:00 (CEST)Falsterbo A, Suède (2615): Quantités de précipitations: 13.06.2019 11:00:00 - 19.06.2019 11:00:00 (CEST)
Date & Time tt [°C] td [°C] ff [km/h] ff [knt] fx [km/h] fx [knt] dd ppp [hPa] vv [km] rr [mm]
19.06.2019 11:00:00 21,0 17,2 19 11 25 14 ESE 1011,2 26 0,0
19.06.2019 10:00:00 20,0 16,6 18 10 25 13 ESE 1011,3 45 0,0
19.06.2019 09:00:00 19,3 15,6 18 10 25 14 ESE 1011,6 40 0,0
19.06.2019 08:00:00 19,3 16,1 17 9 23 12 ESE 1011,6 34 0,0
19.06.2019 07:00:00 18,8 15,5 21 12 26 14 ESE 1011,8 44 0,0
19.06.2019 06:00:00 17,9 16,1 14 8 28 15 E 1012,1 34 0,0
19.06.2019 05:00:00 18,0 16,5 23 12 28 15 ESE 1011,9 31 0,0
19.06.2019 04:00:00 18,1 16,6 18 10 22 12 E 1012,3 35 0,0
19.06.2019 03:00:00 17,2 15,4 5 3 27 15 ESE 1013,1 40 0,0
19.06.2019 02:00:00 17,3 16,2 11 6 14 8 SE 1013,5 35 0,0
19.06.2019 01:00:00 17,6 15,4 9 5 19 11 SW 1014,2 42 0,0
19.06.2019 00:00:00 18,2 15,5 16 9 31 17 S 1014,5 42 0,0
18.06.2019 23:00:00 17,9 15,7 22 12 28 15 ESE 1014,1 35 0,0
18.06.2019 22:00:00 17,7 15,9 21 11 29 16 ESE 1014,3 31 0,0
18.06.2019 21:00:00 18,1 16,1 22 12 29 16 ESE 1014,3 28 0,0
18.06.2019 20:00:00 18,7 15,9 22 12 30 16 ESE 1014,5 30 0,0
18.06.2019 19:00:00 19,2 16,2 24 13 32 17 ESE 1014,9 32 0,0
18.06.2019 18:00:00 19,4 16,1 24 13 29 16 ESE 1015,3 32 0,0
18.06.2019 17:00:00 19,8 15,9 24 13 32 17 ESE 1015,8 33 0,0
18.06.2019 16:00:00 19,8 15,9 24 13 31 17 ESE 1016,5 27 0,0
18.06.2019 15:00:00 19,7 15,3 24 13 31 17 ESE 1017,2 36 0,0
18.06.2019 14:00:00 19,9 15,1 24 13 31 17 ESE 1017,7 35 0,0
18.06.2019 13:00:00 20,4 15,0 26 14 35 19 ESE 1017,9 27 0,0
18.06.2019 12:00:00 19,9 14,7 27 15 35 19 ESE 1018,1 40 0,0
18.06.2019 11:00:00 19,8 14,4 26 14 36 19 ESE 1018,5 31 0,0
18.06.2019 10:00:00 18,1 13,8 26 14 33 18 SE 1018,9 39 0,0
18.06.2019 09:00:00 18,4 14,3 24 13 - - SE 1019,2 44 0,0
18.06.2019 08:00:00 18,0 14,1 24 13 29 16 SE 1019,4 1,4 0,0
18.06.2019 07:00:00 17,3 14,2 20 11 25 14 SE 1019,5 41 0,0
18.06.2019 06:00:00 16,7 14,7 18 10 22 12 SE 1019,7 50 0,0
18.06.2019 05:00:00 16,3 15,0 15 8 21 12 SSE 1019,9 41 0,0
18.06.2019 04:00:00 15,8 14,8 18 10 24 13 SSE 1020,2 48 0,0
18.06.2019 03:00:00 16,0 14,9 18 10 23 12 S 1020,5 48 0,0
18.06.2019 02:00:00 15,4 14,6 16 8 20 11 S 1020,5 50 0,0
18.06.2019 01:00:00 14,8 14,0 11 6 14 8 S 1020,5 37 0,0
18.06.2019 00:00:00 14,9 13,3 9 5 16 9 S 1020,5 45 0,0
17.06.2019 23:00:00 15,5 13,9 12 7 19 10 SSW 1020,7 45 0,0
17.06.2019 22:00:00 17,1 13,0 16 9 24 13 SW 1020,7 50 0,0
17.06.2019 21:00:00 17,3 13,2 19 11 29 16 SSW 1020,7 50 0,0
17.06.2019 20:00:00 18,1 12,5 23 12 30 16 SSW 1020,9 50 0,0
17.06.2019 19:00:00 18,7 13,5 25 13 32 17 SSW 1021,0 48 0,0
17.06.2019 18:00:00 19,8 13,7 25 14 - - SSW 1021,3 50 0,0
17.06.2019 17:00:00 20,4 13,6 28 15 34 19 SSW 1021,5 46 0,0
17.06.2019 16:00:00 21,2 14,8 26 14 32 17 SSW 1021,7 42 0,0
17.06.2019 15:00:00 21,1 15,0 16 8 23 12 S 1022,0 32 0,0
17.06.2019 14:00:00 22,0 15,1 16 9 20 11 S 1021,9 38 0,0
17.06.2019 13:00:00 19,3 12,1 13 7 20 11 SSW 1022,1 48 0,0
17.06.2019 12:00:00 20,5 13,2 9 5 13 7 SW 1022,1 37 0,0
17.06.2019 11:00:00 20,0 14,4 7 4 11 6 W 1022,2 30 0,0
17.06.2019 10:00:00 18,7 13,5 8 5 14 7 W 1022,1 40 0,0
17.06.2019 09:00:00 17,4 13,3 10 6 - - W 1021,8 50 0,0
17.06.2019 08:00:00 16,9 12,2 8 4 15 8 WNW 1021,5 50 0,0
17.06.2019 07:00:00 16,2 13,3 13 7 19 11 WNW 1021,2 36 0,0
17.06.2019 06:00:00 16,4 13,9 16 8 18 10 W 1021,1 34 0,0
17.06.2019 05:00:00 16,4 14,2 10 5 14 8 W 1020,8 44 0,0
17.06.2019 04:00:00 16,2 14,6 12 7 17 9 WSW 1020,9 41 0,0
17.06.2019 03:00:00 16,2 14,2 14 8 19 10 W 1020,8 49 0,0
17.06.2019 02:00:00 16,5 14,1 16 9 19 10 WSW 1020,5 43 0,0
17.06.2019 01:00:00 16,8 13,1 15 8 23 12 W 1020,4 50 0,0
17.06.2019 00:00:00 17,1 13,6 20 11 25 13 W 1020,4 50 0,0
16.06.2019 23:00:00 17,1 14,6 13 7 16 9 WSW 1020,1 50 0,0
16.06.2019 22:00:00 17,5 13,6 11 6 18 10 WNW 1019,7 50 0,0
16.06.2019 21:00:00 17,7 14,0 16 9 23 13 WNW 1019,4 47 0,0
16.06.2019 20:00:00 17,9 13,6 18 10 22 12 WNW 1019,4 50 0,0
16.06.2019 19:00:00 18,0 13,9 15 8 23 12 WNW 1019,4 47 0,0
16.06.2019 18:00:00 18,6 13,7 16 8 23 12 W 1019,2 50 0,0
16.06.2019 17:00:00 19,1 12,8 18 10 22 12 WNW 1019,1 48 0,0
16.06.2019 16:00:00 20,7 12,9 13 7 17 9 WNW 1019,2 26 0,0
16.06.2019 15:00:00 20,3 13,5 11 6 20 11 NW 1018,9 41 0,0
16.06.2019 14:00:00 19,7 13,4 18 10 26 14 WNW 1018,5 38 0,0
16.06.2019 13:00:00 19,1 13,3 18 10 26 14 WNW 1018,1 46 0,0
16.06.2019 12:00:00 18,8 13,2 20 11 28 15 WNW 1017,7 33 0,0
16.06.2019 11:00:00 17,9 12,6 23 12 29 15 WNW 1017,2 42 0,0
16.06.2019 10:00:00 16,7 13,0 25 14 41 22 WNW 1016,5 40 0,0
16.06.2019 09:00:00 15,5 13,3 35 19 48 26 WNW 1016,2 33 0,0
16.06.2019 08:00:00 15,3 13,5 33 18 42 23 W 1015,7 36 0,0
16.06.2019 07:00:00 15,6 14,3 31 17 - - WNW 1014,9 39 0,0
16.06.2019 06:00:00 15,8 14,8 31 17 40 21 WNW 1014,1 25 0,0
16.06.2019 05:00:00 16,3 15,7 28 15 34 19 WNW 1013,7 17 0,0
16.06.2019 04:00:00 16,4 15,8 14 8 18 10 W 1013,0 14 0,0
16.06.2019 03:00:00 16,4 16,1 6 3 8 4 WNW 1013,1 12 0,0
16.06.2019 02:00:00 16,1 15,8 5 3 11 6 N 1013,0 9 0,0
16.06.2019 01:00:00 16,1 15,8 3 2 19 11 N 1012,8 10 0,0
16.06.2019 00:00:00 15,8 15,3 14 8 27 14 S 1012,7 11 0,0
15.06.2019 23:00:00 16,5 14,9 24 13 46 25 ESE 1011,8 19 0,0
15.06.2019 22:00:00 17,0 14,3 35 19 55 30 ESE 1011,2 30 0,0
15.06.2019 21:00:00 17,7 14,8 39 21 53 28 ESE 1010,5 40 0,0
15.06.2019 20:00:00 17,3 14,4 40 21 60 33 E 1009,8 42 0,0
15.06.2019 19:00:00 16,2 13,3 45 24 65 35 E 1010,1 43 1,8
15.06.2019 18:00:00 17,2 13,7 47 25 62 33 E 1010,4 10 0,7
15.06.2019 17:00:00 16,2 12,9 46 25 58 31 E 1011,0 27 1,1
15.06.2019 16:00:00 16,1 15,6 30 16 53 29 E 1012,3 20 1,4
15.06.2019 15:00:00 16,2 14,4 16 8 41 22 NNE 1014,1 23 1,7
15.06.2019 14:00:00 16,1 14,6 24 13 49 27 E 1014,1 25 1,0
15.06.2019 13:00:00 18,1 13,0 30 16 45 24 E 1014,3 33 0,1
15.06.2019 12:00:00 18,3 12,5 29 16 46 25 ESE 1013,7 48 0,0
15.06.2019 11:00:00 19,0 12,7 33 18 46 25 E 1013,6 43 0,0
15.06.2019 10:00:00 17,6 13,1 35 19 51 27 E 1014,2 48 0,0
15.06.2019 09:00:00 18,6 13,5 38 21 48 26 E 1014,4 44 0,0
15.06.2019 08:00:00 18,7 14,2 35 19 51 27 E 1014,5 42 0,0
15.06.2019 07:00:00 17,6 14,9 35 19 43 23 E 1015,1 43 0,0
15.06.2019 06:00:00 17,6 14,9 32 17 44 24 E 1015,1 42 0,0
15.06.2019 05:00:00 17,4 14,5 32 17 45 24 ESE 1015,6 49 0,0
15.06.2019 04:00:00 17,3 13,8 35 19 41 22 ESE 1016,1 50 0,0
15.06.2019 03:00:00 17,4 12,9 31 17 42 23 E 1016,5 50 0,0
15.06.2019 02:00:00 17,2 12,3 29 16 38 20 E 1017,0 50 0,0
15.06.2019 01:00:00 17,4 13,3 26 14 34 18 E 1017,8 50 0,0
15.06.2019 00:00:00 16,5 14,0 19 11 25 14 E 1018,2 50 0,0
14.06.2019 23:00:00 16,6 14,6 18 10 31 17 N 1019,6 21 0,7
14.06.2019 22:00:00 18,1 12,5 18 10 43 23 NNE 1019,2 47 0,0
14.06.2019 21:00:00 17,3 13,6 36 20 47 25 ESE 1017,5 50 0,0
14.06.2019 20:00:00 17,3 13,8 34 18 42 23 ESE 1017,7 50 0,0
14.06.2019 19:00:00 17,7 13,6 31 17 42 23 ESE 1018,2 43 0,0
14.06.2019 18:00:00 18,8 15,3 28 15 38 21 ESE 1018,0 47 0,0
14.06.2019 17:00:00 18,5 15,4 30 16 37 20 ESE 1018,8 48 0,0
14.06.2019 16:00:00 18,8 15,3 24 13 32 18 ESE 1019,5 39 0,0
14.06.2019 15:00:00 19,2 16,1 23 12 31 17 ESE 1019,5 45 0,0
14.06.2019 14:00:00 19,5 16,0 23 13 30 16 ESE 1019,6 39 0,0
14.06.2019 13:00:00 19,4 14,4 19 10 23 12 ESE 1019,6 13 0,0
14.06.2019 12:00:00 19,7 14,7 16 8 24 13 SSE 1019,6 24 0,0
14.06.2019 11:00:00 17,8 13,9 19 10 28 15 S 1019,3 38 0,0
14.06.2019 10:00:00 18,0 14,9 17 9 23 12 SSE 1019,2 29 0,0
14.06.2019 09:00:00 16,5 14,3 16 9 23 12 SE 1018,6 37 0,0
14.06.2019 08:00:00 16,4 13,5 19 10 26 14 ESE 1018,2 44 0,0
14.06.2019 07:00:00 15,6 14,0 17 9 23 12 SE 1017,6 42 0,0
14.06.2019 06:00:00 14,9 13,6 19 10 25 13 SE 1017,7 45 0,0
14.06.2019 05:00:00 14,9 14,3 20 11 25 14 SE 1017,2 50 0,0
14.06.2019 04:00:00 14,4 14,2 21 11 31 17 SE 1017,5 14 0,3
14.06.2019 03:00:00 14,5 14,3 24 13 36 20 SSE 1017,4 6 0,4
14.06.2019 02:00:00 14,6 14,4 18 10 32 17 SE 1016,7 11 3,2
14.06.2019 01:00:00 14,1 13,0 14 7 65 35 SW 1017,6 2,2 4,8
14.06.2019 00:00:00 17,1 11,6 29 16 39 21 WSW 1016,6 50 0,5
13.06.2019 23:00:00 16,8 12,1 26 14 33 18 SE 1014,9 50 0,0
13.06.2019 22:00:00 16,5 12,8 26 14 33 18 SE 1015,1 50 0,0
13.06.2019 21:00:00 16,6 13,7 25 14 31 17 SE 1014,9 48 0,0
13.06.2019 20:00:00 17,0 13,3 24 13 30 16 SE 1014,7 48 0,0
13.06.2019 19:00:00 17,7 12,4 23 13 29 16 SE 1015,1 50 0,0
13.06.2019 18:00:00 18,2 12,9 21 11 26 14 SE 1014,9 38 0,0
13.06.2019 17:00:00 18,5 13,1 19 10 24 13 SE 1014,6 30 0,0
13.06.2019 16:00:00 18,7 13,8 17 9 23 12 SE 1014,9 26 0,0
13.06.2019 15:00:00 20,3 15,7 18 10 23 12 SSE 1014,7 18 0,0
13.06.2019 14:00:00 19,7 15,6 14 8 23 13 SSE 1014,6 13 0,0
13.06.2019 13:00:00 19,1 15,0 18 10 22 12 S 1014,7 15 0,0
13.06.2019 12:00:00 17,5 15,1 16 8 19 10 S 1014,4 12 0,0
13.06.2019 11:00:00 17,7 14,6 14 7 20 11 SSW 1014,4 14 0,0

tt = Température de l'air
td = dewpoint
ff = Vitesse du vent
fx = gusts
dd = Direction du vent
ppp = reduced air pressure
vv = visibility
rr = Quantités de précipitations

stations d'obs. à proximité